DW6016 Weather Reports


time (UTC)temp
C
wind
direction
speed
KPH
gust
KPH
rain 1hr
cm
rain 24hr
cm
rain mn
cm
humidity
%
barometer
mb
20260506020252 17 309 0.0 0.0 0.00 0.00 0.00 75 1016.4
20260506015750 17 309 0.0 0.0 0.00 0.00 0.00 74 1016.5
20260506015247 18 308 1.6 1.6 0.00 0.00 0.00 72 1016.3
20260506014744 18 311 0.0 0.0 0.00 0.00 0.00 69 1016.4
20260506014240 18 301 0.0 0.0 0.00 0.00 0.00 70 1016.5
20260506013737 17 305 0.0 0.0 0.00 0.00 0.00 75 1016.4
20260506013235 17 296 0.0 1.6 0.00 0.00 0.00 73 1016.4
20260506012731 18 308 0.0 0.0 0.00 0.00 0.00 73 1016.2
20260506012228 18 288 0.0 0.0 0.00 0.00 0.00 72 1016.3
20260506011725 18 308 0.0 1.6 0.00 0.00 0.00 73 1016.1
20260506011221 18 313 3.2 3.2 0.00 0.00 0.00 72 1016.4
20260506010720 17 309 3.2 3.2 0.00 0.00 0.00 75 1016.3
20260506010217 17 305 0.0 0.0 0.00 0.00 0.00 74 1016.1
20260506005714 17 297 0.0 0.0 0.00 0.00 0.00 75 1016.2
20260506005211 17 306 1.6 1.6 0.00 0.00 0.00 75 1016.3
20260506004706 17 302 1.6 1.6 0.00 0.00 0.00 75 1016.0
20260506004204 17 305 1.6 1.6 0.00 0.00 0.00 74 1016.4
20260506003700 17 307 1.6 1.6 0.00 0.00 0.00 73 1016.3
20260506003157 17 306 0.0 0.0 0.00 0.00 0.00 75 1016.4
20260506002652 17 310 0.0 0.0 0.00 0.00 0.00 74 1016.3
20260506002149 17 314 0.0 0.0 0.00 0.00 0.00 75 1016.2
20260506001644 17 302 0.0 0.0 0.00 0.00 0.00 75 1016.2
20260506001142 17 303 0.0 1.6 0.00 0.00 0.00 75 1016.4
20260506000639 17 305 0.0 0.0 0.00 0.00 0.00 75 1016.4
20260506000136 17 312 1.6 1.6 0.00 0.00 0.00 75 1016.5
20260505235634 17 312 0.0 0.0 0.00 0.00 0.00 75 1016.5
20260505235131 17 307 1.6 1.6 0.00 0.00 0.00 74 1016.7
20260505234628 17 297 0.0 1.6 0.00 0.00 0.00 74 1016.6
20260505234125 17 305 0.0 0.0 0.00 0.00 0.00 75 1016.7
20260505233622 17 300 0.0 1.6 0.00 0.00 0.00 73 1016.6
20260505233120 17 300 0.0 1.6 0.00 0.00 0.00 74 1016.8
20260505232617 17 321 0.0 0.0 0.00 0.00 0.00 73 1016.6
20260505232115 17 295 1.6 1.6 0.00 0.00 0.00 73 1016.7
20260505231611 17 307 0.0 0.0 0.00 0.00 0.00 74 1016.7
20260505231110 17 323 1.6 1.6 0.00 0.00 0.00 74 1016.9
20260505230608 17 310 0.0 1.6 0.00 0.00 0.00 75 1016.7
20260505225600 17 302 1.6 3.2 0.00 0.00 0.00 74 1016.8
20260505225056 17 295 0.0 0.0 0.00 0.00 0.00 76 1016.7
20260505224553 17 302 1.6 1.6 0.00 0.00 0.00 75 1016.8
20260505224051 17 308 1.6 1.6 0.00 0.00 0.00 75 1016.8
20260505223548 17 309 3.2 3.2 0.00 0.00 0.00 74 1017.0
20260505223044 17 309 0.0 0.0 0.00 0.00 0.00 76 1016.9
20260505222540 17 355 1.6 1.6 0.00 0.00 0.00 75 1017.0
20260505222037 17 320 1.6 1.6 0.00 0.00 0.00 74 1017.1
20260505221534 17 322 0.0 0.0 0.00 0.00 0.00 74 1017.2
20260505221030 17 318 0.0 0.0 0.00 0.00 0.00 74 1017.1
20260505220528 17 319 0.0 0.0 0.00 0.00 0.00 74 1017.1
20260505220025 17 313 0.0 1.6 0.00 0.00 0.00 74 1017.3
20260505215523 17 316 0.0 0.0 0.00 0.00 0.00 75 1017.0
20260505215021 17 302 1.6 1.6 0.00 0.00 0.00 73 1017.1
20260505214519 17 312 0.0 1.6 0.00 0.00 0.00 75 1017.1
20260505214015 17 307 3.2 3.2 0.00 0.00 0.00 74 1017.2
20260505213513 17 321 0.0 0.0 0.00 0.00 0.00 73 1017.0
20260505213009 17 298 0.0 0.0 0.00 0.00 0.00 74 1017.0
20260505212506 17 317 0.0 1.6 0.00 0.00 0.00 74 1017.3
20260505212003 17 272 1.6 3.2 0.00 0.00 0.00 76 1017.0
20260505211500 17 314 0.0 1.6 0.00 0.00 0.00 74 1017.3
20260505210956 17 298 0.0 0.0 0.00 0.00 0.00 74 1017.2
20260505210453 17 302 0.0 0.0 0.00 0.00 0.00 74 1017.3
20260505205950 17 298 0.0 0.0 0.00 0.00 0.00 75 1017.2
20260505205449 16 330 0.0 0.0 0.00 0.00 0.00 76 1017.4
20260505204945 17 304 1.6 1.6 0.00 0.00 0.00 75 1017.4
20260505204443 17 334 1.6 1.6 0.00 0.00 0.00 74 1017.5
20260505203940 17 308 0.0 0.0 0.00 0.00 0.00 75 1017.5
20260505203436 16 311 0.0 0.0 0.00 0.00 0.00 77 1017.7
20260505202933 17 309 1.6 1.6 0.00 0.00 0.00 75 1017.5
20260505202429 17 305 0.0 0.0 0.00 0.00 0.00 77 1017.6
20260505201926 16 297 0.0 0.0 0.00 0.00 0.00 78 1017.6
20260505201423 16 311 0.0 0.0 0.00 0.00 0.00 77 1017.6
20260505200921 16 309 1.6 3.2 0.00 0.00 0.00 77 1017.7
20260505200418 16 305 0.0 0.0 0.00 0.00 0.00 78 1017.8
20260505195913 16 309 3.2 3.2 0.00 0.00 0.00 77 1017.5
20260505195411 16 314 0.0 0.0 0.00 0.00 0.00 77 1017.6
20260505194908 16 324 0.0 1.6 0.00 0.00 0.00 77 1017.7
20260505194406 16 291 1.6 1.6 0.00 0.00 0.00 78 1017.5
20260505193905 16 326 0.0 1.6 0.00 0.00 0.00 77 1017.9
20260505193404 16 60 1.6 3.2 0.00 0.00 0.00 76 1017.8
20260505192901 17 330 0.0 0.0 0.00 0.00 0.00 77 1017.6
20260505192359 17 306 1.6 1.6 0.00 0.00 0.00 75 1017.7
20260505191856 16 315 0.0 0.0 0.00 0.00 0.00 79 1017.6
20260505191355 16 341 1.6 3.2 0.00 0.00 0.00 77 1017.6
20260505190851 15 310 0.0 1.6 0.00 0.00 0.00 78 1017.8
20260505190347 16 343 0.0 0.0 0.00 0.00 0.00 79 1017.8
20260505185842 17 85 1.6 3.2 0.00 0.00 0.00 75 1017.7
20260505185339 16 279 1.6 1.6 0.00 0.00 0.00 79 1017.8
20260505184835 15 257 1.6 3.2 0.00 0.00 0.00 80 1017.8
20260505184332 15 330 0.0 0.0 0.00 0.00 0.00 81 1017.6
20260505183830 15 110 3.2 3.2 0.00 0.00 0.00 81 1017.9
20260505183326 15 350 3.2 3.2 0.00 0.00 0.00 81 1017.7
20260505182823 14 325 1.6 1.6 0.00 0.00 0.00 82 1018.1
20260505182320 15 303 4.8 4.8 0.00 0.00 0.00 82 1017.9
20260505181817 14 327 0.0 0.0 0.00 0.00 0.00 83 1017.7
20260505181314 14 310 1.6 1.6 0.00 0.00 0.00 83 1017.7
20260505180810 15 305 0.0 0.0 0.00 0.00 0.00 84 1017.7
20260505180307 14 310 0.0 0.0 0.00 0.00 0.00 84 1017.7
20260505175803 14 305 0.0 0.0 0.00 0.00 0.00 83 1017.8
20260505175300 14 289 1.6 1.6 0.00 0.00 0.00 84 1017.8
20260505174756 13 309 0.0 0.0 0.00 0.00 0.00 85 1017.7
20260505174254 14 307 1.6 1.6 0.00 0.00 0.00 84 1017.7
20260505173749 13 296 0.0 0.0 0.00 0.00 0.00 87 1017.7
20260505173246 13 286 1.6 1.6 0.00 0.00 0.00 86 1017.6
20260505172743 13 300 1.6 1.6 0.00 0.00 0.00 86 1017.6
20260505172240 13 316 3.2 3.2 0.00 0.00 0.00 86 1017.6
20260505171740 13 304 1.6 1.6 0.00 0.00 0.00 86 1017.6
20260505171237 13 307 0.0 0.0 0.00 0.00 0.00 87 1017.6
20260505170734 13 308 3.2 3.2 0.00 0.00 0.00 86 1017.6
20260505170231 13 307 0.0 1.6 0.00 0.00 0.00 86 1017.4
20260505165726 13 305 0.0 1.6 0.00 0.00 0.00 86 1017.5
20260505165223 13 308 1.6 1.6 0.00 0.00 0.00 85 1017.6
20260505164718 13 307 0.0 0.0 0.00 0.00 0.00 86 1017.6
20260505164216 13 307 0.0 0.0 0.00 0.00 0.00 87 1017.3
20260505163714 13 303 1.6 3.2 0.00 0.00 0.00 85 1017.2
20260505163212 13 305 1.6 1.6 0.00 0.00 0.00 85 1017.5
20260505162709 14 299 0.0 0.0 0.00 0.00 0.00 85 1017.4
20260505162206 14 287 0.0 0.0 0.00 0.00 0.00 84 1017.4
20260505161703 14 288 0.0 0.0 0.00 0.00 0.00 84 1017.2
20260505161200 13 305 3.2 3.2 0.00 0.00 0.00 86 1017.4
20260505160658 14 307 3.2 3.2 0.00 0.00 0.00 85 1017.1
20260505160155 14 282 0.0 1.6 0.00 0.00 0.00 86 1017.4
20260505153134 13 279 0.0 0.0 0.00 0.00 0.00 87 1017.1
20260505152631 13 280 0.0 0.0 0.00 0.00 0.00 87 1017.0
20260505152127 13 280 0.0 0.0 0.00 0.00 0.00 88 1017.4
20260505151622 13 281 0.0 0.0 0.00 0.00 0.00 88 1017.2
20260505151120 13 281 0.0 0.0 0.00 0.00 0.00 89 1017.1
20260505150616 13 278 1.6 1.6 0.00 0.00 0.00 88 1017.2
20260505150113 13 288 0.0 0.0 0.00 0.00 0.00 89 1017.0
20260505140541 12 288 0.0 0.0 0.00 0.00 0.00 91 1016.6
20260505124955 12 290 0.0 0.0 0.00 0.00 0.00 91 1015.9
20260505124452 12 289 0.0 0.0 0.00 0.00 0.00 91 1016.3
20260505123948 12 289 0.0 0.0 0.00 0.00 0.00 91 1016.1
20260505123444 12 291 0.0 0.0 0.00 0.00 0.00 92 1016.1
20260505122940 12 291 0.0 0.0 0.00 0.00 0.00 92 1016.2
20260505122438 12 291 0.0 0.0 0.00 0.00 0.00 92 1016.1
20260505121934 12 291 0.0 0.0 0.00 0.00 0.00 92 1016.2
20260505121432 12 291 0.0 0.0 0.00 0.00 0.00 92 1016.1
20260505120927 12 291 0.0 0.0 0.00 0.00 0.00 92 1016.0
20260505120424 12 291 0.0 0.0 0.00 0.00 0.00 91 1016.0
20260505115923 12 291 0.0 0.0 0.00 0.00 0.00 91 1016.0
20260505115420 12 291 0.0 0.0 0.00 0.00 0.00 92 1015.9
20260505114918 12 291 0.0 0.0 0.00 0.00 0.00 92 1016.0
20260505114414 12 291 0.0 0.0 0.00 0.00 0.00 93 1016.3
20260505113910 12 291 0.0 0.0 0.00 0.00 0.00 93 1016.1
20260505113407 12 291 0.0 0.0 0.00 0.00 0.00 93 1015.9
20260505112903 12 291 0.0 0.0 0.00 0.00 0.00 93 1015.8
20260505112401 11 291 0.0 0.0 0.00 0.00 0.00 94 1016.0
20260505111856 11 291 0.0 0.0 0.00 0.00 0.00 94 1016.0
20260505111351 11 291 0.0 0.0 0.00 0.00 0.00 94 1016.0
20260505110847 11 291 0.0 0.0 0.00 0.00 0.00 95 1016.0
20260505110345 11 291 0.0 0.0 0.00 0.00 0.00 95 1015.9
20260505101815 11 291 0.0 0.0 0.00 0.00 0.00 99 1015.6
20260505101310 11 291 0.0 0.0 0.00 0.00 0.00 99 1015.3
20260505100806 10 291 0.0 0.0 0.00 0.00 0.00 98 1015.4
20260505100303 10 291 0.0 0.0 0.00 0.00 0.00 98 1015.4
20260505095759 10 291 0.0 0.0 0.00 0.00 0.00 98 1015.8
20260505095257 10 291 0.0 0.0 0.00 0.00 0.00 98 1015.7
20260505094752 10 291 0.0 0.0 0.00 0.00 0.00 98 1015.4
20260505094249 10 291 0.0 0.0 0.00 0.00 0.00 97 1015.5
20260505093745 10 291 0.0 0.0 0.00 0.00 0.00 97 1015.5
20260505093243 10 291 0.0 0.0 0.00 0.00 0.00 97 1015.4
20260505092739 10 291 0.0 0.0 0.00 0.00 0.00 97 1015.4
20260505092238 10 291 0.0 0.0 0.00 0.00 0.00 96 1015.4
20260505091735 10 291 0.0 0.0 0.00 0.00 0.00 96 1015.4
20260505091233 10 291 0.0 0.0 0.00 0.00 0.00 95 1015.2
20260505090730 11 291 0.0 0.0 0.00 0.00 0.00 94 1015.3
20260505090229 11 291 0.0 0.0 0.00 0.00 0.00 94 1015.3
20260505085725 11 291 0.0 0.0 0.00 0.00 0.00 94 1014.9
20260505085224 11 291 0.0 0.0 0.00 0.00 0.00 93 1015.1
20260505084721 11 291 0.0 0.0 0.00 0.00 0.00 93 1015.3
20260505084220 11 291 0.0 0.0 0.00 0.00 0.00 92 1015.4
20260505083716 11 291 0.0 0.0 0.00 0.00 0.00 92 1015.0
20260505083213 11 291 0.0 0.0 0.00 0.00 0.00 91 1015.1
20260505082709 12 291 0.0 0.0 0.00 0.00 0.00 91 1015.1
20260505082206 12 284 0.0 0.0 0.00 0.00 0.00 91 1014.9
20260505081702 12 284 0.0 0.0 0.00 0.00 0.00 91 1015.0
20260505081200 12 284 0.0 0.0 0.00 0.00 0.00 91 1015.2
20260505080656 12 284 0.0 0.0 0.00 0.00 0.00 91 1014.8
20260505080152 12 284 0.0 0.0 0.00 0.00 0.00 91 1014.7
20260505075648 12 284 0.0 0.0 0.00 0.00 0.00 91 1014.9
20260505075145 12 284 0.0 0.0 0.00 0.00 0.00 91 1014.7
20260505074642 12 284 0.0 0.0 0.00 0.00 0.00 91 1014.9
20260505074139 12 284 0.0 0.0 0.00 0.00 0.00 91 1014.8
20260505073637 12 272 0.0 0.0 0.00 0.00 0.00 90 1014.4
20260505073135 12 272 0.0 0.0 0.00 0.00 0.00 90 1014.5
20260505072630 12 272 0.0 0.0 0.00 0.00 0.00 89 1014.5
20260505072127 13 272 0.0 0.0 0.00 0.00 0.00 88 1014.5
20260505071623 13 272 0.0 0.0 0.00 0.00 0.00 88 1014.2
20260505071121 13 272 0.0 0.0 0.00 0.00 0.00 87 1014.3
20260505070618 13 272 0.0 0.0 0.00 0.00 0.00 86 1014.2
20260505070114 13 272 0.0 0.0 0.00 0.00 0.00 86 1014.2
20260505065610 13 272 0.0 0.0 0.00 0.00 0.00 86 1014.2
20260505065107 13 276 0.0 0.0 0.00 0.00 0.00 86 1014.1
20260505064604 13 275 1.6 1.6 0.00 0.00 0.00 86 1014.0
20260505064102 13 275 0.0 0.0 0.00 0.00 0.00 85 1014.1
20260505063559 13 276 0.0 0.0 0.00 0.00 0.00 85 1013.7
20260505063055 14 276 0.0 0.0 0.00 0.00 0.00 84 1013.7
20260505062551 14 276 0.0 0.0 0.00 0.00 0.00 84 1014.0
20260505062049 14 276 0.0 0.0 0.00 0.00 0.00 83 1013.7
20260505061546 15 272 0.0 0.0 0.00 0.00 0.00 83 1013.9
20260505061044 15 272 0.0 0.0 0.00 0.00 0.00 82 1013.7
20260505060541 15 277 0.0 0.0 0.00 0.00 0.00 82 1013.5
20260505060037 15 276 0.0 0.0 0.00 0.00 0.00 81 1013.7
20260505055533 15 276 1.6 1.6 0.00 0.00 0.00 81 1013.6
20260505055030 15 284 0.0 0.0 0.00 0.00 0.00 80 1013.6
20260505054527 16 286 1.6 1.6 0.00 0.00 0.00 79 1013.4
20260505054025 16 293 0.0 0.0 0.00 0.00 0.00 80 1013.6
20260505053522 16 314 0.0 0.0 0.00 0.00 0.00 80 1013.2
20260505053019 16 314 0.0 0.0 0.00 0.00 0.00 78 1013.4
20260505052516 16 314 0.0 0.0 0.00 0.00 0.00 78 1013.4
20260505052013 17 290 0.0 0.0 0.00 0.00 0.00 77 1013.2
20260505051510 17 307 0.0 0.0 0.00 0.00 0.00 77 1013.1
20260505051008 17 308 0.0 0.0 0.00 0.00 0.00 75 1013.1
20260505050506 18 304 0.0 0.0 0.00 0.00 0.00 74 1013.0